Wind_Speed
8 8 8 7 8 8 7 6 5 4 4 5 5 6 6 6 6 7 7 8 9 10 12 13 12 10 7 5 4 5 6 6 6 6 6 7 7 7 7 7 6 7 7
10 10 10 10 11 11 10 9 7 6 4 3 3 3 3 4 4 4 5 6 7 9 11 12 13 12 10 6 4 3 4 4 5 5 5 4 4 4 5 6 6 6 6
10 11 12 12 12 12 11 10 9 8 6 4 2 1 1 2 3 3 4 5 6 8 10 11 12 12 10 8 5 3 2 2 3 4 4 3 2 2 3 4 4 4 5
10 12 13 13 13 12 12 11 10 10 8 6 4 3 3 4 5 5 6 7 7 8 9 10 10 10 10 8 6 4 2 1 1 2 2 2 2 2 2 3 4 4 4
12 13 15 15 14 13 12 12 11 10 9 8 7 6 7 7 7 8 8 8 9 9 9 9 9 9 9 8 7 6 4 3 2 1 0 1 1 2 2 3 4 4 4
13 14 15 15 14 13 12 12 12 12 11 10 10 10 10 10 10 11 11 11 11 12 11 11 10 10 9 8 7 6 6 4 3 2 2 2 2 2 2 3 4 4 4
14 14 14 14 13 12 12 13 13 14 14 14 14 14 14 14 14 14 15 15 15 15 15 14 13 13 11 10 9 8 8 7 6 4 4 4 4 4 3 4 4 5 5
13 14 14 14 14 14 14 14 15 16 16 17 17 18 18 18 18 18 18 18 19 19 19 18 17 17 16 14 13 12 11 11 10 8 7 6 6 6 6 6 6 6 7
14 15 16 16 17 17 18 18 18 19 19 19 20 20 20 21 21 21 21 22 22 22 22 22 21 21 20 19 18 17 16 15 14 13 12 10 9 9 9 9 9 8 8
15 17 18 20 21 22 22 22 22 22 22 22 22 22 22 22 22 23 23 24 24 24 25 25 24 24 24 23 22 20 19 18 17 17 16 15 14 13 13 12 12 11 11
19 21 22 24 25 26 26 27 28 27 27 25 24 23 23 23 23 23 24 24 25 26 26 26 26 26 26 25 24 23 21 20 19 19 19 19 19 18 17 17 16 15 14
22 23 25 27 28 30 31 32 33 33 32 29 28 26 24 23 23 23 24 24 25 25 25 26 27 27 26 26 25 24 23 23 21 21 20 20 21 21 21 20 20 19 18
25 26 28 29 31 32 33 35 35 35 36 34 33 30 28 25 24 23 24 24 24 24 24 25 26 26 26 26 26 25 25 24 23 22 21 20 21 22 22 23 24 23 23
29 29 30 31 32 34 36 36 37 38 38 37 36 34 31 27 25 24 24 24 24 24 24 24 25 24 25 25 25 24 24 23 23 22 22 21 21 21 22 23 24 26 26
30 31 32 34 34 36 36 37 39 39 39 39 39 38 34 30 27 26 25 24 24 24 24 25 24 24 24 24 24 24 23 23 22 22 22 21 19 20 21 21 23 25 27
31 32 34 35 36 38 39 40 39 40 41 42 39 39 36 33 30 28 26 25 25 25 25 26 25 24 24 25 25 25 24 22 21 20 21 20 20 20 20 20 21 23 26
33 34 38 38 39 40 40 41 41 40 39 38 38 40 37 35 32 29 26 25 24 25 25 25 26 26 26 25 25 24 23 22 21 21 20 20 20 20 20 20 21 22 24
37 40 42 41 40 39 40 41 40 39 35 33 37 38 36 35 32 29 26 24 24 25 26 26 26 26 26 26 26 25 23 22 21 20 19 18 18 19 19 20 21 22 23
41 43 43 41 39 39 40 40 38 36 31 29 32 35 35 34 30 27 26 25 25 25 25 26 26 26 26 26 26 25 23 22 21 19 17 16 16 16 17 18 19 20 21
43 43 42 39 37 37 37 37 37 32 26 22 24 28 29 30 28 27 26 25 24 24 25 25 25 25 25 25 24 24 23 21 19 18 16 15 14 14 15 16 17 18 20
43 41 39 38 36 36 36 36 34 29 23 17 18 22 25 27 28 27 27 26 25 25 24 24 24 24 24 24 24 23 22 21 20 18 16 15 14 13 13 14 15 17 18
42 41 39 38 36 36 37 36 34 29 24 21 19 19 21 25 27 27 27 26 26 26 25 24 23 23 23 23 23 23 23 22 21 19 18 17 15 14 13 14 14 15 17
40 40 40 39 39 38 38 36 34 32 29 24 21 21 22 24 27 28 29 29 28 27 27 25 25 24 24 24 24 24 24 24 23 21 19 18 17 16 15 14 14 15 16
39 40 41 41 41 40 39 38 36 34 31 29 27 27 27 27 29 31 32 31 30 29 29 28 27 27 27 26 26 26 26 25 25 23 21 19 18 17 16 15 15 15 16
39 41 42 43 43 43 42 41 40 38 36 34 33 33 32 31 31 33 33 33 32 31 31 31 31 31 31 30 29 28 27 27 27 26 24 22 20 19 18 17 16 16 16
40 41 43 43 44 44 45 44 43 43 42 41 40 38 38 38 37 37 37 36 35 35 34 34 34 34 34 34 33 31 30 29 29 29 28 25 23 21 20 20 19 18 18
Wind_Direction
274 274 276 279 283 289 300 313 329 350 24 55 64 59 52 47 42 34 27 22 18 16 14 14 18 20 23 36 53 58 56 53 51 52 56 62 69 75 78 87 109 132 138
276 277 281 281 282 286 292 299 307 316 334 10 52 61 47 33 24 18 12 9 6 5 5 7 11 16 20 21 26 45 54 53 54 54 54 58 68 83 93 98 108 128 138
286 289 290 287 285 286 289 292 298 303 310 318 327 338 342 335 330 332 336 341 346 351 356 0 6 13 19 20 17 17 31 44 53 60 63 65 77 95 111 119 123 132 140
303 303 299 292 289 289 290 292 295 299 303 305 304 297 292 291 292 297 305 314 323 332 342 349 356 4 12 17 16 12 4 358 17 52 71 87 112 136 142 141 143 153 158
312 308 300 294 291 291 292 294 295 297 298 297 296 293 288 284 283 284 287 293 300 307 317 327 335 344 354 4 8 8 3 348 323 301 281 144 139 160 177 173 163 162 174
314 309 303 298 296 296 297 297 298 298 297 295 292 289 286 283 281 279 278 278 282 288 294 303 310 316 323 332 340 345 345 342 329 302 275 254 235 213 210 204 191 182 183
313 310 306 304 303 302 302 301 300 298 295 293 291 289 286 283 280 277 275 274 274 277 281 287 292 295 299 304 309 313 317 318 316 308 288 273 260 248 240 231 214 204 201
309 307 306 306 304 302 301 299 298 296 294 292 291 289 286 283 280 278 276 274 274 275 277 280 283 285 287 289 291 294 296 298 299 297 291 281 272 263 254 247 236 222 214
299 303 305 304 303 301 299 296 294 292 291 289 287 285 283 281 279 277 275 274 274 273 274 277 279 280 282 283 284 285 286 288 287 285 281 277 273 266 258 249 242 234 226
292 296 300 301 299 297 295 293 290 287 285 283 282 281 280 278 276 275 274 273 272 272 272 273 275 276 277 279 280 281 281 281 281 278 276 272 267 264 260 253 246 239 233
287 292 295 296 296 295 294 292 289 285 282 279 277 275 275 274 272 272 272 272 272 271 271 271 272 273 274 276 277 278 279 278 276 276 274 272 266 262 259 255 248 243 238
288 292 295 295 295 294 293 292 288 284 280 276 273 270 268 268 268 269 270 270 271 271 270 270 270 270 271 273 274 276 276 277 275 273 272 269 266 263 260 255 249 245 243
292 292 293 293 293 291 291 290 286 285 279 274 271 267 264 263 263 264 266 268 269 269 270 270 270 270 268 270 272 274 275 276 275 272 272 270 267 265 262 256 249 246 246
292 291 291 289 291 292 292 289 287 285 278 270 267 263 260 259 258 259 262 265 267 268 269 270 269 269 269 269 271 274 277 275 274 272 270 268 266 264 261 255 250 246 245
290 290 289 289 292 294 294 293 293 287 278 272 267 259 256 255 254 256 259 262 264 267 268 269 269 270 270 269 270 271 273 277 273 268 266 265 263 262 259 254 251 248 246
289 291 293 295 297 303 306 305 299 291 286 272 264 254 251 252 252 253 256 258 260 263 266 266 266 267 266 266 268 270 271 271 271 269 266 263 261 260 255 250 249 250 247
292 296 300 304 307 309 312 309 306 299 288 270 257 248 245 247 249 249 252 255 258 261 263 263 264 264 264 265 266 266 266 265 266 265 263 261 260 258 254 249 248 249 249
299 303 306 307 309 311 312 311 310 303 291 270 253 243 240 243 246 248 249 254 257 259 260 261 262 262 262 262 262 263 262 259 259 259 258 259 258 257 255 252 252 252 250
303 306 308 311 314 314 313 313 312 306 291 268 249 244 240 240 245 249 252 255 257 258 258 258 259 259 259 259 258 258 256 254 252 251 252 254 257 259 258 257 255 254 252
303 305 307 310 312 313 314 315 315 312 296 271 249 241 239 238 245 251 254 256 257 257 256 256 256 255 254 253 252 250 248 246 244 243 245 248 252 256 260 261 259 256 254
300 302 304 305 307 310 314 317 318 316 305 280 260 250 244 244 247 250 256 258 258 256 254 253 252 251 249 247 244 242 240 237 236 237 240 244 248 252 258 262 262 260 257
295 298 299 301 303 306 310 314 316 316 311 295 278 266 261 253 251 253 257 259 259 256 254 251 247 245 245 243 240 238 236 234 234 235 238 242 246 250 256 262 265 265 261
294 296 298 300 301 304 306 308 310 309 305 300 288 280 271 266 263 260 259 259 259 257 254 250 244 240 239 238 237 236 236 234 234 236 238 241 246 249 253 259 264 268 267
294 296 297 298 299 300 301 301 301 299 297 292 285 280 275 269 264 261 259 258 257 256 253 248 243 238 236 235 235 236 236 236 237 238 239 243 247 251 255 259 264 270 273
296 297 298 297 297 297 296 295 294 291 288 284 280 275 271 267 263 260 257 255 254 254 252 248 244 239 236 235 235 236 238 238 239 240 241 242 247 253 258 262 268 273 276
300 299 298 297 295 294 293 291 288 285 282 278 275 270 267 263 261 258 256 254 252 251 250 247 245 241 238 237 236 237 237 239 241 242 244 245 247 251 257 263 268 273 278
Height
5907 5906 5906 5906 5905 5905 5903 5902 5901 5900 5899 5899 5898 5897 5897 5897 5897 5897 5897 5896 5896 5895 5894 5893 5892 5891 5890 5889 5889 5889 5888 5888 5887 5886 5886 5886 5886 5886 5886 5886 5886 5886 5887
5906 5906 5906 5905 5905 5904 5902 5901 5900 5899 5898 5898 5897 5897 5897 5897 5897 5897 5897 5896 5896 5895 5894 5893 5892 5891 5890 5889 5889 5888 5888 5888 5887 5887 5887 5886 5886 5887 5887 5887 5887 5888 5888
5906 5905 5905 5904 5904 5903 5901 5900 5899 5898 5897 5897 5897 5897 5897 5897 5896 5896 5896 5896 5895 5894 5894 5893 5892 5891 5890 5889 5889 5889 5888 5888 5888 5887 5887 5887 5887 5887 5887 5888 5888 5889 5889
5905 5904 5904 5903 5902 5901 5900 5899 5898 5897 5896 5896 5896 5896 5896 5896 5896 5896 5895 5895 5894 5894 5893 5893 5892 5891 5891 5890 5889 5889 5888 5888 5888 5888 5888 5888 5888 5888 5888 5888 5888 5889 5889
5904 5903 5903 5902 5901 5900 5899 5898 5897 5896 5895 5895 5895 5895 5895 5895 5895 5894 5894 5894 5893 5893 5892 5892 5892 5891 5891 5890 5890 5889 5889 5888 5888 5888 5888 5888 5888 5888 5888 5888 5888 5889 5889
5903 5903 5902 5900 5899 5898 5897 5897 5896 5895 5895 5894 5894 5893 5893 5893 5893 5893 5892 5892 5891 5891 5891 5891 5891 5890 5890 5890 5889 5889 5888 5888 5888 5887 5887 5887 5887 5887 5888 5888 5888 5888 5889
5903 5902 5901 5899 5898 5897 5896 5895 5895 5894 5893 5892 5892 5891 5891 5891 5890 5890 5889 5889 5888 5888 5888 5888 5888 5888 5888 5888 5888 5888 5887 5887 5887 5887 5887 5886 5886 5887 5887 5887 5887 5887 5888
5902 5901 5899 5898 5897 5896 5894 5894 5893 5892 5891 5890 5889 5889 5888 5887 5887 5886 5886 5885 5885 5884 5884 5884 5885 5885 5885 5885 5885 5885 5885 5885 5885 5885 5885 5885 5885 5885 5886 5886 5886 5886 5887
5900 5899 5898 5896 5895 5894 5892 5891 5890 5889 5888 5887 5886 5885 5884 5883 5883 5882 5881 5881 5881 5880 5880 5880 5880 5881 5881 5881 5881 5882 5882 5882 5882 5882 5882 5882 5883 5883 5884 5884 5884 5885 5886
5898 5896 5895 5894 5892 5891 5889 5888 5886 5885 5884 5883 5882 5881 5880 5879 5878 5877 5877 5876 5876 5876 5876 5876 5876 5876 5876 5876 5877 5877 5878 5878 5878 5878 5878 5879 5879 5880 5881 5882 5882 5883 5884
5895 5893 5892 5890 5889 5887 5885 5884 5882 5881 5879 5878 5876 5875 5875 5874 5873 5872 5872 5871 5871 5871 5871 5871 5871 5871 5871 5871 5872 5872 5872 5873 5873 5874 5874 5874 5875 5876 5877 5878 5879 5880 5881
5891 5890 5888 5886 5885 5883 5881 5879 5877 5875 5873 5872 5870 5869 5868 5868 5867 5867 5866 5866 5866 5865 5865 5866 5866 5865 5866 5866 5866 5867 5867 5867 5868 5868 5869 5869 5870 5871 5872 5873 5875 5876 5878
5887 5885 5883 5881 5879 5876 5874 5872 5870 5868 5866 5864 5863 5862 5861 5860 5860 5860 5861 5860 5860 5860 5860 5860 5860 5860 5860 5860 5861 5861 5862 5862 5862 5863 5863 5863 5864 5865 5866 5867 5869 5871 5873
5882 5879 5877 5874 5871 5868 5866 5863 5862 5860 5857 5855 5855 5854 5853 5853 5853 5854 5854 5854 5854 5854 5854 5854 5854 5854 5855 5855 5855 5856 5856 5857 5856 5857 5857 5857 5858 5859 5860 5861 5863 5864 5867
5875 5872 5870 5866 5863 5860 5857 5854 5852 5849 5848 5846 5845 5845 5845 5845 5845 5846 5847 5848 5849 5848 5848 5848 5848 5849 5850 5850 5850 5850 5851 5851 5851 5851 5851 5852 5852 5853 5854 5855 5857 5858 5860
5869 5866 5862 5859 5855 5851 5847 5845 5841 5838 5836 5834 5834 5835 5836 5837 5838 5839 5840 5841 5842 5842 5842 5842 5843 5843 5844 5845 5845 5845 5846 5847 5846 5846 5846 5847 5847 5848 5848 5850 5851 5853 5854
5862 5859 5855 5851 5847 5843 5839 5835 5831 5826 5822 5821 5821 5823 5826 5828 5830 5831 5832 5833 5834 5835 5836 5836 5837 5837 5838 5839 5840 5840 5841 5841 5841 5841 5842 5842 5842 5843 5844 5845 5846 5847 5849
5855 5851 5848 5844 5840 5836 5831 5825 5819 5815 5809 5808 5810 5813 5816 5820 5822 5823 5825 5826 5827 5829 5829 5830 5830 5831 5832 5832 5833 5835 5836 5836 5837 5837 5838 5838 5838 5838 5839 5840 5842 5842 5844
5848 5844 5841 5837 5833 5829 5824 5817 5811 5805 5800 5798 5800 5804 5809 5812 5815 5816 5818 5819 5821 5822 5822 5823 5824 5824 5825 5826 5827 5829 5830 5831 5832 5833 5834 5834 5834 5834 5835 5836 5837 5838 5839
5841 5838 5835 5831 5828 5823 5818 5811 5805 5799 5794 5793 5795 5799 5802 5805 5808 5809 5811 5812 5814 5815 5816 5816 5817 5818 5819 5820 5821 5823 5824 5826 5827 5829 5830 5830 5830 5831 5831 5831 5832 5832 5833
5835 5832 5829 5825 5822 5818 5813 5808 5802 5796 5792 5790 5791 5794 5797 5799 5801 5802 5804 5805 5806 5807 5808 5809 5811 5812 5813 5814 5815 5817 5819 5821 5823 5824 5826 5827 5827 5827 5827 5827 5827 5827 5828
5827 5824 5822 5818 5815 5811 5807 5803 5798 5795 5792 5789 5789 5790 5791 5793 5794 5796 5797 5798 5799 5800 5801 5802 5803 5805 5806 5808 5810 5812 5814 5817 5819 5820 5822 5823 5823 5823 5823 5823 5823 5823 5823
5819 5816 5813 5810 5807 5804 5801 5797 5794 5792 5790 5788 5788 5787 5787 5788 5788 5789 5790 5791 5792 5793 5794 5795 5796 5798 5800 5802 5804 5806 5809 5811 5813 5815 5817 5818 5819 5820 5820 5819 5819 5819 5818
5811 5808 5805 5802 5799 5796 5794 5791 5789 5787 5785 5784 5783 5783 5782 5782 5782 5782 5783 5783 5784 5785 5786 5788 5789 5791 5793 5795 5797 5800 5803 5805 5808 5810 5812 5813 5815 5815 5815 5815 5814 5814 5814
5804 5800 5797 5793 5790 5787 5784 5782 5780 5779 5777 5776 5776 5775 5774 5774 5774 5774 5774 5775 5776 5777 5778 5780 5781 5783 5786 5788 5790 5793 5796 5798 5801 5804 5806 5809 5810 5811 5811 5811 5810 5809 5809
5795 5791 5787 5783 5780 5776 5773 5770 5768 5767 5766 5765 5764 5764 5764 5764 5764 5764 5765 5765 5766 5767 5769 5770 5772 5775 5777 5780 5783 5786 5788 5791 5794 5797 5799 5802 5804 5806 5806 5806 5805 5804 5803